sat.trackr.live / text

‹ back to catalog

STARLINK-34470

NORAD 64703 · 2025-142H

PAYLOAD ACTIVE UNKNOWN

§ Identity

Operator
Country
US
Launch date
2025-06-28
Launch site
AFWTR
Launch vehicle
Mass (kg)
RCS (m²)

Purposes: comms

External: N2YO · Heavens-Above · Gunter

§ Orbital elements

Epoch: 2026-05-25T04:30:33.441984Z

Period
96.11 min
Inclination
70.0001°
Eccentricity
0.0003468
Mean motion
14.98335329 rev/d
Perigee alt
569.6 km
Apogee alt
574.4 km
Semi-major
6,950.2 km
B*
2.0627e-4
RAAN
121.3835°
Arg perigee
269.1527°
Mean anomaly
90.9235°
Rev number
5,092

§ Raw data

STARLINK-344701 64703U 25142H   26145.18788706  .00002369  00000+0  20627-3 0  99962 64703  70.0001 121.3835 0003468 269.1527  90.9235 14.98335329 50927

JSON: /api/v1/satellites/64703 · /tle

For live sub-satellite position, see the globe view (requires WebGL).

§ Visibility from observer

Set your observer location to see the next 7 days of passes ≥ 10°. The values pass through the URL so the page stays shareable.

No JS? Fill the form by hand. The geolocation button needs JavaScript.